TimeEST,TemperatureF,Dew PointF,Humidity,Sea Level PressureIn,VisibilityMPH,Wind Direction,Wind SpeedMPH,Gust SpeedMPH,PrecipitationIn,Events,Conditions,WindDirDegrees,DateUTC
12:53 AM,23.0,9.0,55,30.38,10.0,NE,3.5,-,N/A,,Overcast,50,2013-12-14 05:53:00
1:31 AM,23.0,10.4,59,30.38,10.0,North,3.5,-,N/A,,Overcast,350,2013-12-14 06:31:00
1:53 AM,23.0,9.0,55,30.40,10.0,ENE,5.8,-,N/A,,Overcast,60,2013-12-14 06:53:00
2:53 AM,21.9,8.1,55,30.41,10.0,NE,5.8,-,N/A,,Overcast,50,2013-12-14 07:53:00
3:53 AM,21.0,10.0,63,30.43,4.0,NNE,5.8,-,0.00,Snow,Light Snow,30,2013-12-14 08:53:00
4:32 AM,21.2,12.2,68,30.40,2.5,NNE,5.8,-,0.00,Snow,Light Snow,30,2013-12-14 09:32:00
4:53 AM,19.9,12.9,74,30.43,2.0,NE,6.9,-,0.00,Snow,Light Snow,50,2013-12-14 09:53:00
5:00 AM,19.4,12.2,74,30.41,1.8,NE,6.9,-,0.00,Snow,Light Snow,50,2013-12-14 10:00:00
5:41 AM,19.4,12.2,74,30.44,2.0,NE,4.6,-,0.00,Snow,Light Snow,50,2013-12-14 10:41:00
5:53 AM,19.9,12.9,74,30.46,2.0,NE,4.6,-,0.00,Snow,Light Snow,40,2013-12-14 10:53:00
6:01 AM,19.4,12.2,74,30.44,2.0,NNE,5.8,-,0.00,Snow,Light Snow,30,2013-12-14 11:01:00
6:27 AM,19.4,14.0,80,30.44,1.8,NNE,4.6,-,0.00,Snow,Light Snow,30,2013-12-14 11:27:00
6:53 AM,19.0,12.9,77,30.48,1.5,ENE,6.9,-,0.00,Snow,Light Snow,60,2013-12-14 11:53:00
7:40 AM,19.4,14.0,80,30.47,1.0,ENE,4.6,-,0.01,Snow,Light Snow,60,2013-12-14 12:40:00
7:53 AM,19.0,12.9,77,30.49,2.0,ENE,6.9,-,0.01,Snow,Light Snow,60,2013-12-14 12:53:00
8:16 AM,19.4,14.0,80,30.47,1.8,ENE,6.9,-,0.00,Snow,Light Snow,60,2013-12-14 13:16:00
8:23 AM,19.4,14.0,80,30.48,2.0,ENE,5.8,-,0.00,Snow,Light Snow,70,2013-12-14 13:23:00
8:33 AM,19.4,12.2,74,30.49,1.5,East,6.9,-,0.00,Snow,Light Snow,80,2013-12-14 13:33:00
8:44 AM,19.4,12.2,74,30.50,1.0,East,5.8,-,0.00,Snow,Light Snow,80,2013-12-14 13:44:00
8:53 AM,19.0,12.0,74,30.51,1.0,NE,6.9,-,0.00,Snow,Light Snow,40,2013-12-14 13:53:00
9:05 AM,17.6,12.2,79,30.49,0.8,NE,8.1,-,0.00,Snow,Light Snow,50,2013-12-14 14:05:00
9:21 AM,17.6,12.2,79,30.50,1.0,NE,9.2,-,0.00,Snow,Light Snow,50,2013-12-14 14:21:00
9:33 AM,17.6,12.2,79,30.51,1.2,NE,5.8,-,0.00,Snow,Light Snow,50,2013-12-14 14:33:00
9:41 AM,17.6,10.4,73,30.51,1.0,ENE,6.9,-,0.00,Snow,Light Snow,60,2013-12-14 14:41:00
9:53 AM,18.0,12.0,78,30.53,1.2,ENE,5.8,-,0.01,Snow,Light Snow,60,2013-12-14 14:53:00
10:18 AM,17.6,10.4,73,30.51,1.0,NE,8.1,-,0.00,Snow,Light Snow,50,2013-12-14 15:18:00
10:35 AM,17.6,10.4,73,30.52,1.5,NE,10.4,-,0.00,Snow,Light Snow,50,2013-12-14 15:35:00
10:47 AM,17.6,10.4,73,30.52,0.8,ENE,5.8,-,0.00,Snow,Light Snow,60,2013-12-14 15:47:00
10:53 AM,18.0,10.9,74,30.54,0.8,ENE,9.2,-,0.00,Snow,Light Snow,60,2013-12-14 15:53:00
11:36 AM,17.6,10.4,73,30.49,1.2,NE,5.8,-,0.00,Snow,Light Snow,40,2013-12-14 16:36:00
11:53 AM,17.1,10.9,77,30.49,1.0,NE,9.2,-,0.00,Snow,Light Snow,40,2013-12-14 16:53:00
12:18 PM,17.6,10.4,73,30.46,1.5,NE,8.1,-,0.00,Snow,Light Snow,50,2013-12-14 17:18:00
12:28 PM,17.6,10.4,73,30.45,2.5,NE,8.1,-,0.00,Snow,Light Snow,50,2013-12-14 17:28:00
12:42 PM,17.6,10.4,73,30.45,3.0,NE,6.9,-,0.00,Snow,Light Snow,40,2013-12-14 17:42:00
12:53 PM,17.1,10.0,74,30.46,5.0,NE,9.2,-,0.00,,Haze,50,2013-12-14 17:53:00
1:23 PM,15.8,8.6,73,30.43,2.0,ENE,9.2,-,0.00,Snow,Light Snow,60,2013-12-14 18:23:00
1:31 PM,17.6,8.6,68,30.42,1.2,NE,6.9,-,0.00,Snow,Light Snow,50,2013-12-14 18:31:00
1:41 PM,15.8,8.6,73,30.42,1.0,ENE,9.2,17.3,0.00,Snow,Light Snow,60,2013-12-14 18:41:00
1:53 PM,16.0,9.0,74,30.43,1.0,ENE,8.1,16.1,0.00,Snow,Light Snow,60,2013-12-14 18:53:00
2:04 PM,15.8,8.6,73,30.41,1.2,ENE,6.9,-,0.00,Snow,Light Snow,60,2013-12-14 19:04:00
2:10 PM,15.8,8.6,73,30.41,0.8,NE,6.9,-,0.01,Snow,Light Snow,50,2013-12-14 19:10:00
2:17 PM,15.8,8.6,73,30.40,0.5,ENE,9.2,-,0.01,Snow,Snow,60,2013-12-14 19:17:00
2:53 PM,16.0,10.0,77,30.42,1.0,ENE,6.9,-,0.01,Snow,Light Snow,70,2013-12-14 19:53:00
3:07 PM,15.8,10.4,79,30.38,0.8,ENE,11.5,-,0.00,Snow,Light Snow,70,2013-12-14 20:07:00
3:35 PM,15.8,8.6,73,30.38,0.5,East,9.2,-,0.01,Snow,Snow,80,2013-12-14 20:35:00
3:51 PM,15.8,8.6,73,30.36,0.8,ENE,10.4,18.4,0.01,Snow,Light Snow,60,2013-12-14 20:51:00
3:53 PM,15.1,9.0,77,30.39,0.8,ENE,10.4,-,0.01,Snow,Light Snow,70,2013-12-14 20:53:00
4:24 PM,15.8,8.6,73,30.36,1.2,ENE,13.8,19.6,0.00,Snow,Light Snow,70,2013-12-14 21:24:00
4:53 PM,15.1,9.0,77,30.36,0.8,ENE,10.4,19.6,0.00,Snow,Light Snow,70,2013-12-14 21:53:00
5:00 PM,15.8,8.6,73,30.32,0.8,ENE,11.5,-,0.01,Snow,Light Snow,60,2013-12-14 22:00:00
5:24 PM,15.8,8.6,73,30.30,1.0,ENE,10.4,18.4,0.01,Snow,Light Snow,70,2013-12-14 22:24:00
5:33 PM,15.8,8.6,73,30.30,1.5,NE,9.2,-,0.01,Snow,Light Snow,50,2013-12-14 22:33:00
5:46 PM,15.8,8.6,73,30.30,2.0,ENE,8.1,-,0.01,Snow,Light Snow,60,2013-12-14 22:46:00
5:53 PM,15.1,9.0,77,30.32,1.8,ENE,8.1,-,0.02,Snow,Light Snow,60,2013-12-14 22:53:00
6:21 PM,15.8,8.6,73,30.29,1.0,ENE,9.2,-,0.00,Snow,Light Snow,70,2013-12-14 23:21:00
6:32 PM,15.8,10.4,79,30.27,0.8,ENE,8.1,-,0.01,Snow,Light Snow,60,2013-12-14 23:32:00
6:39 PM,15.8,10.4,79,30.26,1.0,ENE,9.2,-,0.01,Snow,Light Snow,60,2013-12-14 23:39:00
6:53 PM,16.0,10.0,77,30.28,1.0,ENE,9.2,-,0.01,Snow,Light Snow,60,2013-12-14 23:53:00
7:03 PM,15.8,10.4,79,30.25,1.2,ENE,11.5,-,0.00,Snow,Light Snow,60,2013-12-15 00:03:00
7:09 PM,15.8,10.4,79,30.25,1.0,ENE,11.5,-,0.00,Snow,Light Snow,60,2013-12-15 00:09:00
7:24 PM,15.8,10.4,79,30.23,0.8,ENE,11.5,-,0.00,Snow,Light Snow,60,2013-12-15 00:24:00
7:53 PM,16.0,10.9,81,30.22,0.5,ENE,11.5,-,0.02,Snow,Snow,70,2013-12-15 00:53:00
8:23 PM,17.6,10.4,73,30.18,0.8,ENE,11.5,-,0.00,Snow,Light Snow,70,2013-12-15 01:23:00
8:53 PM,18.0,12.0,78,30.16,0.8,ENE,15.0,-,0.01,Snow,Light Snow,70,2013-12-15 01:53:00
8:57 PM,17.6,12.2,79,30.13,1.0,ENE,13.8,-,0.00,Snow,Light Snow,70,2013-12-15 01:57:00
9:06 PM,17.6,12.2,79,30.12,1.8,ENE,13.8,20.7,0.00,Snow,Light Snow,70,2013-12-15 02:06:00
9:13 PM,19.4,12.2,74,30.11,2.0,ENE,16.1,-,0.00,Snow,Light Snow,70,2013-12-15 02:13:00
9:30 PM,19.4,12.2,74,30.09,1.5,ENE,17.3,23.0,0.00,Snow,Light Snow,70,2013-12-15 02:30:00
9:45 PM,19.4,14.0,80,30.08,1.0,ENE,12.7,-,0.00,Snow,Light Snow,70,2013-12-15 02:45:00
9:53 PM,19.0,14.0,81,30.09,1.0,ENE,12.7,-,0.00,Snow,Light Snow,70,2013-12-15 02:53:00
10:35 PM,19.4,14.0,80,30.04,1.0,NE,11.5,-,0.00,Snow,Light Snow,50,2013-12-15 03:35:00
10:45 PM,19.4,14.0,80,30.02,1.2,ENE,13.8,-,0.00,Snow,Light Snow,60,2013-12-15 03:45:00
10:53 PM,19.0,14.0,81,30.03,1.2,ENE,13.8,-,0.01,Snow,Light Snow,60,2013-12-15 03:53:00
11:01 PM,19.4,14.0,80,30.00,1.0,ENE,11.5,-,0.00,Snow,Light Snow,70,2013-12-15 04:01:00
11:11 PM,19.4,15.8,86,29.98,0.8,ENE,12.7,20.7,0.00,Snow,Light Snow,60,2013-12-15 04:11:00
11:24 PM,19.4,15.8,86,29.96,1.0,ENE,12.7,-,0.00,Snow,Light Snow,70,2013-12-15 04:24:00
11:53 PM,19.9,15.1,81,29.93,1.2,ENE,12.7,-,0.00,Snow,Light Snow,60,2013-12-15 04:53:00